• In Netherlands
  • List of Countries
  • For 7 days
  • Water Temperature
  • Satellite Maps
  • Weather Map
  • Weather Widgets
  • user-avatar
    Login

    Hourly Weather Baranovichi

    Today, 22 September, Friday

    Time Temperature Precipitation Wind Pressure Humidity
    00:00 +14°C° 0.5 mm 3 mps 743 mmHg 91%
    01:00 +14°C° 0.5 mm 3 mps 743 mmHg 91%
    02:00 +14°C° 0 mm 3 mps 743 mmHg 93%
    03:00 +14°C° 0 mm 3 mps 743 mmHg 93%
    04:00 +13°C° 0 mm 3 mps 743 mmHg 93%
    05:00 +13°C° 0 mm 3 mps 744 mmHg 94%
    06:00 +13°C° 0.1 mm 3 mps 744 mmHg 92%
    07:00 +14°C° 0.1 mm 4 mps 744 mmHg 90%
    08:00 +14°C° 0.1 mm 4 mps 744 mmHg 88%
    09:00 +17°C° 0.2 mm 4 mps 745 mmHg 84%
    10:00 +18°C° 0.2 mm 4 mps 745 mmHg 81%
    11:00 +19°C° 0.2 mm 4 mps 745 mmHg 77%
    12:00 +20°C° 0 mm 4 mps 746 mmHg 74%
    13:00 +21°C° 0 mm 4 mps 746 mmHg 72%
    14:00 +22°C° 0 mm 4 mps 746 mmHg 70%
    15:00 +22°C° 0 mm 4 mps 746 mmHg 71%
    16:00 +21°C° 0 mm 4 mps 746 mmHg 73%
    17:00 +21°C° 0 mm 3 mps 746 mmHg 75%
    18:00 +20°C° 0 mm 4 mps 746 mmHg 75%
    19:00 +19°C° 0 mm 5 mps 746 mmHg 76%
    20:00 +17°C° 0 mm 5 mps 746 mmHg 76%
    21:00 +17°C° 0 mm 5 mps 746 mmHg 76%
    22:00 +16°C° 0 mm 5 mps 746 mmHg 75%
    23:00 +16°C° 0 mm 6 mps 747 mmHg 75%

    Tomorrow, 23 September, Saturday

    Time Temperature Precipitation Wind Pressure Humidity
    00:00 +15°C° 0 mm 6 mps 747 mmHg 76%
    01:00 +15°C° 0 mm 6 mps 747 mmHg 76%
    02:00 +14°C° 0 mm 5 mps 747 mmHg 77%
    03:00 +14°C° 0 mm 6 mps 747 mmHg 77%
    04:00 +13°C° 0 mm 6 mps 747 mmHg 76%
    05:00 +13°C° 0 mm 6 mps 747 mmHg 76%
    06:00 +13°C° 0 mm 6 mps 747 mmHg 75%
    07:00 +13°C° 0 mm 6 mps 748 mmHg 74%
    08:00 +13°C° 0 mm 6 mps 748 mmHg 73%
    09:00 +14°C° 0 mm 7 mps 748 mmHg 71%
    10:00 +16°C° 0 mm 7 mps 748 mmHg 68%
    11:00 +17°C° 0 mm 7 mps 749 mmHg 65%
    12:00 +17°C° 0 mm 7 mps 749 mmHg 64%
    13:00 +19°C° 0 mm 6 mps 749 mmHg 62%
    14:00 +20°C° 0 mm 6 mps 749 mmHg 61%
    15:00 +19°C° 0 mm 6 mps 750 mmHg 64%
    16:00 +19°C° 0 mm 5 mps 750 mmHg 66%
    17:00 +18°C° 0 mm 4 mps 750 mmHg 68%
    18:00 +16°C° 0 mm 5 mps 750 mmHg 68%
    19:00 +15°C° 0 mm 5 mps 750 mmHg 68%
    20:00 +15°C° 0 mm 5 mps 751 mmHg 68%
    21:00 +14°C° 0 mm 5 mps 751 mmHg 69%
    22:00 +14°C° 0 mm 5 mps 751 mmHg 70%
    23:00 +14°C° 0 mm 4 mps 751 mmHg 71%

    Day after tomorrow, 24 September, Sunday

    Time Temperature Precipitation Wind Pressure Humidity
    00:00 +13°C° 0 mm 4 mps 751 mmHg 73%
    01:00 +13°C° 0 mm 4 mps 751 mmHg 75%
    02:00 +13°C° 0 mm 4 mps 751 mmHg 77%
    03:00 +12°C° 0 mm 4 mps 752 mmHg 79%
    04:00 +12°C° 0 mm 4 mps 752 mmHg 80%
    05:00 +12°C° 0 mm 4 mps 752 mmHg 82%
    06:00 +12°C° 0 mm 4 mps 752 mmHg 81%
    07:00 +12°C° 0 mm 4 mps 752 mmHg 81%
    08:00 +12°C° 0 mm 4 mps 753 mmHg 81%
    09:00 +13°C° 0.2 mm 4 mps 753 mmHg 80%
    10:00 +14°C° 0.2 mm 5 mps 753 mmHg 79%
    11:00 +14°C° 0.2 mm 5 mps 753 mmHg 78%
    12:00 +14°C° 0.5 mm 5 mps 754 mmHg 78%
    13:00 +14°C° 0.5 mm 5 mps 754 mmHg 78%
    14:00 +15°C° 0.5 mm 5 mps 754 mmHg 78%
    15:00 +14°C° 0.1 mm 5 mps 754 mmHg 79%
    16:00 +14°C° 0.1 mm 4 mps 754 mmHg 79%
    17:00 +14°C° 0.1 mm 4 mps 754 mmHg 80%
    18:00 +13°C° 0 mm 4 mps 754 mmHg 80%
    19:00 +13°C° 0 mm 4 mps 755 mmHg 80%
    20:00 +12°C° 0 mm 4 mps 755 mmHg 80%
    21:00 +12°C° 0 mm 4 mps 755 mmHg 80%
    22:00 +11°C° 0 mm 4 mps 755 mmHg 80%
    23:00 +11°C° 0 mm 4 mps 755 mmHg 80%

    25 September, Monday

    Time Temperature Precipitation Wind Pressure Humidity
    00:00 +11°C° 0 mm 4 mps 756 mmHg 80%
    01:00 +11°C° 0 mm 4 mps 756 mmHg 80%
    02:00 +10°C° 0 mm 4 mps 756 mmHg 80%
    03:00 +10°C° 0 mm 4 mps 756 mmHg 80%
    04:00 +10°C° 0 mm 4 mps 756 mmHg 80%
    05:00 +10°C° 0 mm 4 mps 756 mmHg 80%
    06:00 +10°C° 0 mm 4 mps 756 mmHg 79%
    07:00 +11°C° 0 mm 4 mps 756 mmHg 77%
    08:00 +10°C° 0 mm 5 mps 757 mmHg 76%
    09:00 +13°C° 0 mm 5 mps 757 mmHg 71%
    10:00 +15°C° 0 mm 5 mps 757 mmHg 66%
    11:00 +16°C° 0 mm 5 mps 757 mmHg 62%
    12:00 +17°C° 0 mm 5 mps 757 mmHg 59%
    13:00 +19°C° 0 mm 5 mps 757 mmHg 57%
    14:00 +20°C° 0 mm 5 mps 757 mmHg 55%
    15:00 +19°C° 0 mm 5 mps 757 mmHg 59%
    16:00 +19°C° 0 mm 4 mps 757 mmHg 62%
    17:00 +18°C° 0 mm 4 mps 757 mmHg 66%
    18:00 +17°C° 0 mm 4 mps 757 mmHg 69%
    19:00 +15°C° 0 mm 4 mps 757 mmHg 71%
    20:00 +14°C° 0 mm 4 mps 758 mmHg 73%
    21:00 +13°C° 0 mm 4 mps 758 mmHg 74%
    22:00 +13°C° 0 mm 4 mps 758 mmHg 76%
    23:00 +12°C° 0 mm 4 mps 758 mmHg 77%

    26 September, Tuesday

    Time Temperature Precipitation Wind Pressure Humidity
    00:00 +12°C° 0 mm 4 mps 758 mmHg 78%
    01:00 +12°C° 0 mm 4 mps 758 mmHg 79%
    02:00 +11°C° 0 mm 4 mps 758 mmHg 80%
    03:00 +11°C° 0 mm 4 mps 758 mmHg 81%
    04:00 +11°C° 0 mm 4 mps 758 mmHg 83%
    05:00 +10°C° 0 mm 3 mps 758 mmHg 85%
    06:00 +11°C° 0 mm 4 mps 758 mmHg 83%
    07:00 +11°C° 0 mm 4 mps 758 mmHg 82%
    08:00 +11°C° 0 mm 4 mps 758 mmHg 80%
    09:00 +13°C° 0 mm 4 mps 758 mmHg 74%
    10:00 +15°C° 0 mm 5 mps 758 mmHg 68%
    11:00 +16°C° 0 mm 5 mps 758 mmHg 62%
    12:00 +17°C° 0 mm 5 mps 758 mmHg 59%
    13:00 +17°C° 0 mm 5 mps 758 mmHg 56%
    14:00 +19°C° 0 mm 5 mps 758 mmHg 53%
    15:00 +18°C° 0 mm 4 mps 757 mmHg 57%
    16:00 +17°C° 0 mm 4 mps 757 mmHg 60%
    17:00 +17°C° 0 mm 3 mps 757 mmHg 63%
    18:00 +14°C° 0 mm 3 mps 757 mmHg 66%
    19:00 +13°C° 0 mm 3 mps 758 mmHg 69%
    20:00 +12°C° 0 mm 3 mps 758 mmHg 71%
    21:00 +11°C° 0 mm 3 mps 758 mmHg 73%
    22:00 +11°C° 0 mm 3 mps 758 mmHg 74%
    23:00 +10°C° 0 mm 3 mps 758 mmHg 75%

    27 September, Wednesday

    Time Temperature Precipitation Wind Pressure Humidity
    00:00 +10°C° 0 mm 3 mps 758 mmHg 78%
    01:00 +10°C° 0 mm 3 mps 758 mmHg 80%
    02:00 +9°C° 0 mm 3 mps 758 mmHg 83%
    03:00 +9°C° 0 mm 3 mps 758 mmHg 85%
    04:00 +9°C° 0 mm 3 mps 758 mmHg 86%
    05:00 +9°C° 0 mm 3 mps 758 mmHg 88%
    06:00 +9°C° 0 mm 3 mps 758 mmHg 87%
    07:00 +10°C° 0 mm 3 mps 758 mmHg 86%
    08:00 +10°C° 0 mm 4 mps 759 mmHg 86%
    09:00 +12°C° 0 mm 4 mps 759 mmHg 80%
    10:00 +13°C° 0 mm 4 mps 759 mmHg 75%
    11:00 +15°C° 0 mm 4 mps 759 mmHg 69%
    12:00 +15°C° 0 mm 4 mps 759 mmHg 67%
    13:00 +17°C° 0 mm 4 mps 759 mmHg 64%
    14:00 +17°C° 0 mm 4 mps 759 mmHg 62%
    15:00 +17°C° 0 mm 4 mps 759 mmHg 64%
    16:00 +16°C° 0 mm 3 mps 758 mmHg 67%
    17:00 +16°C° 0 mm 3 mps 758 mmHg 69%
    18:00 +13°C° 0 mm 3 mps 759 mmHg 73%
    19:00 +12°C° 0 mm 3 mps 759 mmHg 77%
    20:00 +11°C° 0 mm 3 mps 759 mmHg 80%
    21:00 +10°C° 0 mm 3 mps 759 mmHg 81%
    22:00 +10°C° 0 mm 2 mps 759 mmHg 81%
    23:00 +9°C° 0 mm 2 mps 759 mmHg 81%
    Show more